User: anonymous
Location: Unspecified
(0.0000°N, 0.0000°E)
Time: 08:12:31
(UTC+00:00)
Language:

Tiros 1 - Orbit

View from above orbital plane
View from above orbital plane
View from above satellite
View from above satellite

Ground track
Ground track

The orbit data is extracted from the following two-line orbital elements,

1 00029U 60002B   14264.74742587  .00000308  00000-0  78347-4 0  3347
2 00029 048.3785 114.9824 0024905 269.5579 090.2478 14.73310383909472
Epoch (UTC): 21 September 2014 17:56:17
Eccentricity: 0.0024905
inclination: 48.3785°
perigee height: 633 km
apogee height: 668 km
right ascension of ascending node: 114.9824°
argument of perigee: 269.5579°
revolutions per day: 14.73310383
mean anomaly at epoch: 90.2478°
orbit number at epoch: 90947

The dashed part of the orbit path shows where the satellite is in the earth's shadow,  

DLR